Location: Izdebno
(52.6670°N, 16.2170°E)
Time: 12:19:02
(UTC+02:00)

Vanguard 2 - Pass Details

Date: 03 February 2023
Orbit: 553 x 2927 km, 32.9° (Epoch: 26 March)

Event Time Altitude Azimuth Distance (km) Brightness Sun altitude
Rises 01:55:13 0° 262° (W) 6,473 - -48.4°
Reaches altitude 10° 02:00:01 10° 253° (WSW) 5,631 - -47.9°
Maximum altitude 02:14:08 32° 200° (SSW) 4,167 - -46.4°
Exits shadow 02:24:15 17° 155° (SSE) 4,778 11.4 -45.3°
Drops below altitude 10° 02:27:16 10° 146° (SE) 5,208 11.7 -44.9°
Sets 02:31:31 0° 137° (SE) 5,939 12.1 -44.4°
